Location: Unspecified
(0.0000°N, 0.0000°E)
Time: 20:27:58
(UTC+00:00)

Explorer 25 - Visible Passes

Search period start: 06 March 2026 00:00
Search period end: 16 March 2026 00:00
Orbit: 524 x 2264 km, 81.3° (Epoch: 6 March)

Date Brightness Start Highest point End Pass type
(mag) Time Alt. Az. Time Alt. Az. Time Alt. Az.
6 Mar 10.0 19:15:30 10° S 19:28:28 87° E 19:38:37 10° N visible
6 Mar 12.1 21:16:01 10° WSW 21:21:54 15° W 21:27:17 10° WNW visible
7 Mar 10.8 19:54:46 10° SSW 20:06:46 50° W 20:16:21 10° NNW visible
8 Mar 10.0 18:38:29 10° S 18:51:02 64° E 19:00:44 10° NNE visible
8 Mar 11.8 20:35:57 10° SW 20:44:45 23° W 20:52:18 10° NW visible
9 Mar 10.3 19:17:01 10° SSW 19:29:33 70° W 19:39:07 10° N visible
10 Mar 11.3 19:57:06 10° SSW 20:07:37 34° W 20:16:05 10° NNW visible
11 Mar 9.9 18:39:39 10° S 18:52:12 86° E 19:01:29 10° N visible
11 Mar 12.2 20:40:22 10° WSW 20:45:27 14° W 20:50:02 10° WNW visible
12 Mar 10.8 19:18:54 10° SSW 19:30:27 49° W 19:39:12 10° NNW visible
13 Mar 11.1 05:46:00 10° NE 05:49:24 19° E 05:53:37 10° SE visible
13 Mar 11.9 20:00:09 10° SW 20:08:18 22° W 20:15:07 10° NW visible
14 Mar 10.2 18:41:10 10° S 18:53:11 70° W 19:01:53 10° N visible
15 Mar 11.4 19:21:16 10° SSW 19:31:09 33° W 19:38:50 10° NNW visible
